NW6UP Weather Reports


time (UTC)temp
C
wind
direction
speed
KPH
gust
KPH
rain 1hr
cm
rain 24hr
cm
rain mn
cm
humidity
%
barometer
mb
20260503012425 18 360 3.2 4.8 0.00 0.00 0.00 60 1010.2
20260503010425 18 72 1.6 4.8 0.00 0.00 0.00 58
20260503004426 19 40 1.6 4.8 0.00 0.00 0.00 56 1010.4
20260503002425 20 360 3.2 3.2 0.00 0.00 0.00 56 1010.3
20260503000425 20 337 3.2 3.2 0.00 0.00 0.00 54 1010.3
20260502234426 20 41 1.6 3.2 0.00 0.00 0.00 55 1010.4
20260502232432 20 135 3.2 4.8 0.00 0.00 0.00 55 1010.9
20260502230425 21 90 1.6 3.2 0.00 0.00 0.00 53 1011.2
20260502224425 21 26 1.6 3.2 0.00 0.00 0.00 54 1011.3
20260502222425 21 360 1.6 4.8 0.00 0.00 0.00 53 1011.4
20260502220425 22 37 1.6 4.8 0.00 0.00 0.00 52 1011.5
20260502214426 22 85 1.6 3.2 0.00 0.00 0.00 52 1011.5
20260502212426 21 112 3.2 3.2 0.00 0.00 0.00 55 1012.0
20260502210427 21 112 1.6 3.2 0.00 0.00 0.00 55
20260502204426 21 360 1.6 3.2 0.00 0.00 0.00 54 1012.3
20260502202425 20 77 1.6 3.2 0.00 0.00 0.00 55 1012.6
20260502194425 18 68 3.2 6.4 0.00 0.00 0.00 60 1013.1
20260502192426 18 0 0.0 6.4 0.00 0.00 0.00 62
20260502190426 18 58 0.0 4.8 0.00 0.00 0.00 62
20260502184425 17 298 0.0 1.6 0.00 0.00 0.00 67 1013.5
20260502182426 17 0 0.0 3.2 0.00 0.00 0.00 68
20260502170425 15 90 1.6 1.6 0.00 0.00 0.00 78 1013.4
20260502162425 14 142 0.0 3.2 0.00 0.00 0.00 82 1013.0
20260502160426 14 360 1.6 1.6 0.00 0.00 0.00 84 1012.9
20260502150425 13 147 1.6 4.8 0.00 0.00 0.00 85 1012.5
20260502130426 13 0 0.0 1.6 0.00 0.00 0.00 88
20260502122426 13 0 0.0 1.6 0.00 0.00 0.00 88 1012.1
20260502120425 13 58 0.0 1.6 0.00 0.00 0.00 88 1012.1
20260502114426 13 0 0.0 0.0 0.00 0.00 0.00 88 1012.1
20260502112427 13 45 1.6 1.6 0.00 0.00 0.00 88 1012.1
20260502104427 13 0 0.0 0.0 0.00 0.00 0.00 87 1012.3
20260502100426 13 0 0.0 0.0 0.00 0.00 0.00 87 1012.6
20260502090426 13 360 3.2 1.6 0.00 0.00 0.00 87 1013.0
20260502070425 13 0 0.0 0.0 0.00 0.00 0.00 85
20260502064425 13 45 0.0 1.6 0.00 0.00 0.00 85
20260502062426 13 0 0.0 1.6 0.00 0.00 0.00 85 1013.5
20260502054427 13 0 0.0 0.0 0.00 0.00 0.00 86
20260502052426 13 0 0.0 3.2 0.00 0.00 0.00 86 1013.2
20260502050425 13 0 0.0 0.0 0.00 0.00 0.00 86 1013.0
20260502044425 13 0 0.0 1.6 0.00 0.00 0.00 85
20260502042425 13 173 0.0 3.2 0.00 0.00 0.00 84 1012.6
20260502040426 14 0 0.0 0.0 0.00 0.00 0.00 83 1012.4
20260502032425 15 0 0.0 0.0 0.00 0.00 0.00 80 1011.9
20260502030425 16 27 0.0 1.6 0.00 0.00 0.00 77
20260502024427 16 49 0.0 3.2 0.00 0.00 0.00 73
20260502014425 18 360 1.6 3.2 0.00 0.00 0.00 66 1011.5